VOI1056 MMMY-MMLO

Flight info

Callsign VOI1056
Flight time 0h 55m
Altitude 32000
Route URTO1B URTOB UJ11 BEROS UJ31 SLP UJ40 LIBOL LIBO1B
Aircraft A320/M-SDE3FGHIRWY/LB1

Departure

Time 2026-04-20 17:36
Airport Monterrey International Airport (MMMY)

Arrival

Time 2026-04-20 18:32
Airport Guanajuato International Airport (MMLO)
Time Latitude Longitude Altitude Speed Heading
2026-04-20 17:23 25.77837 -100.11250 1275 ft 0 kts 211°
2026-04-20 17:24 25.77848 -100.11243 1276 ft 2 kts 211°
2026-04-20 17:24 25.77863 -100.11233 1275 ft 3 kts 211°
2026-04-20 17:24 25.77877 -100.11223 1276 ft 2 kts 211°
2026-04-20 17:24 25.77892 -100.11213 1278 ft 2 kts 211°
2026-04-20 17:25 25.77907 -100.11204 1275 ft 2 kts 211°
2026-04-20 17:25 25.77921 -100.11194 1275 ft 2 kts 211°
2026-04-20 17:25 25.77936 -100.11184 1275 ft 3 kts 211°
2026-04-20 17:25 25.77939 -100.11182 1275 ft 0 kts 211°
2026-04-20 17:26 25.77944 -100.11179 1275 ft 0 kts 211°
2026-04-20 17:26 25.77942 -100.11181 1275 ft 0 kts 211°
2026-04-20 17:27 25.77941 -100.11181 1275 ft 0 kts 211°
2026-04-20 17:27 25.77942 -100.11180 1275 ft 0 kts 211°
2026-04-20 17:27 25.77939 -100.11182 1275 ft 3 kts 212°
2026-04-20 17:27 25.77914 -100.11222 1278 ft 0 kts 279°
2026-04-20 17:29 25.77917 -100.11228 1278 ft 2 kts 295°
2026-04-20 17:29 25.77925 -100.11244 1276 ft 3 kts 300°
2026-04-20 17:29 25.77944 -100.11270 1276 ft 5 kts 313°
2026-04-20 17:30 25.77980 -100.11286 1279 ft 6 kts 360°
2026-04-20 17:30 25.78021 -100.11259 1277 ft 8 kts 32°
2026-04-20 17:30 25.78078 -100.11220 1276 ft 11 kts 31°
2026-04-20 17:30 25.78110 -100.11188 1276 ft 7 kts 70°
2026-04-20 17:31 25.78091 -100.11123 1275 ft 11 kts 118°
2026-04-20 17:31 25.78047 -100.11042 1275 ft 14 kts 122°
2026-04-20 17:31 25.77993 -100.10942 1273 ft 17 kts 121°
2026-04-20 17:31 25.77924 -100.10821 1270 ft 20 kts 122°
2026-04-20 17:32 25.77848 -100.10679 1271 ft 22 kts 120°
2026-04-20 17:32 25.77756 -100.10524 1273 ft 26 kts 126°
2026-04-20 17:32 25.77648 -100.10349 1265 ft 29 kts 121°
2026-04-20 17:32 25.77535 -100.10146 1261 ft 33 kts 122°
2026-04-20 17:33 25.77408 -100.09919 1259 ft 36 kts 121°
2026-04-20 17:33 25.77281 -100.09676 1261 ft 38 kts 120°
2026-04-20 17:33 25.77160 -100.09442 1255 ft 27 kts 120°
2026-04-20 17:33 25.77081 -100.09297 1246 ft 17 kts 122°
2026-04-20 17:34 25.77038 -100.09192 1259 ft 13 kts 134°
2026-04-20 17:34 25.77027 -100.09192 1248 ft 1 kts 218°
2026-04-20 17:34 25.77028 -100.09212 1257 ft 6 kts 287°
2026-04-20 17:34 25.77056 -100.09254 1253 ft 0 kts 303°
2026-04-20 17:35 25.77068 -100.09275 1256 ft 23 kts 303°
2026-04-20 17:35 25.77290 -100.09675 1263 ft 94 kts 302°
2026-04-20 17:35 25.77726 -100.10463 1272 ft 142 kts 301°
2026-04-20 17:36 25.78285 -100.11479 1586 ft 158 kts 301°
2026-04-20 17:36 25.78842 -100.12547 2220 ft 165 kts 300°
2026-04-20 17:36 25.79372 -100.13737 2760 ft 180 kts 296°
2026-04-20 17:36 25.79992 -100.15003 3274 ft 193 kts 299°
2026-04-20 17:37 25.80670 -100.16347 3726 ft 207 kts 298°
2026-04-20 17:37 25.81422 -100.17771 4189 ft 221 kts 300°
2026-04-20 17:37 25.82259 -100.19306 4628 ft 244 kts 301°
2026-04-20 17:37 25.83181 -100.20897 5520 ft 246 kts 304°
2026-04-20 17:38 25.84135 -100.22473 6500 ft 246 kts 303°
2026-04-20 17:38 25.84911 -100.24148 7393 ft 245 kts 282°
2026-04-20 17:38 25.84865 -100.25996 8316 ft 239 kts 250°
2026-04-20 17:38 25.84011 -100.27528 9253 ft 233 kts 224°
2026-04-20 17:39 25.82763 -100.28625 10209 ft 226 kts 213°
2026-04-20 17:39 25.81399 -100.29504 10926 ft 226 kts 206°
2026-04-20 17:39 25.79945 -100.30176 11619 ft 229 kts 198°
2026-04-20 17:39 25.78344 -100.30504 12136 ft 241 kts 185°
2026-04-20 17:40 25.76611 -100.30446 12584 ft 257 kts 175°
2026-04-20 17:40 25.74806 -100.30081 13120 ft 270 kts 169°
2026-04-20 17:40 25.72954 -100.29593 13721 ft 278 kts 169°
2026-04-20 17:40 25.71062 -100.29034 14334 ft 285 kts 166°
2026-04-20 17:41 25.69168 -100.28287 14920 ft 293 kts 160°
2026-04-20 17:41 25.67321 -100.27260 15480 ft 301 kts 152°
2026-04-20 17:41 25.65603 -100.25881 16087 ft 309 kts 141°
2026-04-20 17:41 25.64004 -100.24274 16801 ft 307 kts 148°
2026-04-20 17:42 25.62109 -100.23328 17647 ft 293 kts 174°
2026-04-20 17:42 25.60129 -100.23415 18391 ft 287 kts 197°
2026-04-20 17:42 25.58286 -100.24355 18525 ft 301 kts 221°
2026-04-20 17:42 25.56659 -100.25927 18644 ft 320 kts 224°
2026-04-20 17:43 25.54959 -100.27636 18754 ft 340 kts 225°
2026-04-20 17:43 25.53169 -100.29437 18854 ft 356 kts 224°
2026-04-20 17:43 25.51302 -100.31309 19142 ft 367 kts 224°
2026-04-20 17:43 25.49393 -100.33211 19659 ft 370 kts 224°
2026-04-20 17:44 25.47498 -100.35096 20265 ft 371 kts 224°
2026-04-20 17:44 25.45576 -100.37005 20851 ft 372 kts 224°
2026-04-20 17:44 25.43640 -100.38926 21430 ft 374 kts 224°
2026-04-20 17:44 25.41703 -100.40850 21990 ft 375 kts 224°
2026-04-20 17:45 25.39755 -100.42784 22571 ft 376 kts 225°
2026-04-20 17:45 25.37718 -100.44609 23133 ft 381 kts 215°
2026-04-20 17:45 25.35258 -100.45788 23649 ft 390 kts 201°
2026-04-20 17:45 25.32638 -100.46614 24121 ft 393 kts 200°
2026-04-20 17:46 25.29995 -100.47415 24543 ft 395 kts 200°
2026-04-20 17:46 25.27337 -100.48207 24921 ft 397 kts 200°
2026-04-20 17:46 25.24656 -100.49007 25283 ft 401 kts 200°
2026-04-20 17:46 25.21950 -100.49818 25676 ft 404 kts 200°
2026-04-20 17:47 25.19227 -100.50640 26084 ft 407 kts 200°
2026-04-20 17:47 25.16487 -100.51470 26488 ft 410 kts 201°
2026-04-20 17:47 25.13752 -100.52298 26887 ft 412 kts 201°
2026-04-20 17:47 25.10975 -100.53140 27264 ft 415 kts 201°
2026-04-20 17:48 25.08179 -100.53986 27674 ft 418 kts 201°
2026-04-20 17:48 25.05363 -100.54837 28074 ft 421 kts 201°
2026-04-20 17:48 25.02531 -100.55695 28476 ft 423 kts 201°
2026-04-20 17:48 24.99683 -100.56559 28862 ft 426 kts 201°
2026-04-20 17:49 24.96811 -100.57431 29242 ft 429 kts 201°
2026-04-20 17:49 24.93920 -100.58307 29615 ft 432 kts 201°
2026-04-20 17:49 24.91007 -100.59187 29982 ft 435 kts 201°
2026-04-20 17:49 24.88076 -100.60068 30397 ft 436 kts 201°
2026-04-20 17:50 24.85159 -100.60941 30899 ft 434 kts 201°
2026-04-20 17:50 24.82252 -100.61810 31436 ft 431 kts 201°
2026-04-20 17:50 24.79374 -100.62671 31947 ft 429 kts 201°
2026-04-20 17:50 24.76499 -100.63532 32132 ft 426 kts 201°
2026-04-20 17:51 24.73655 -100.64385 32173 ft 420 kts 201°
2026-04-20 17:51 24.68047 -100.66079 32171 ft 417 kts 201°
2026-04-20 17:52 24.62460 -100.67758 32142 ft 416 kts 201°
2026-04-20 17:52 24.56866 -100.69438 32160 ft 417 kts 201°
2026-04-20 17:53 24.51274 -100.71109 32159 ft 417 kts 201°
2026-04-20 17:53 24.45678 -100.72789 32157 ft 417 kts 201°
2026-04-20 17:54 24.40086 -100.74469 32159 ft 417 kts 201°
2026-04-20 17:54 24.34526 -100.76133 32159 ft 417 kts 201°
2026-04-20 17:55 24.28926 -100.77802 32161 ft 417 kts 201°
2026-04-20 17:55 24.23333 -100.79464 32158 ft 417 kts 201°
2026-04-20 17:56 24.17738 -100.81135 32157 ft 417 kts 201°
2026-04-20 17:56 24.13047 -100.82534 32159 ft 417 kts 201°
2026-04-20 17:57 24.07438 -100.84206 32155 ft 417 kts 201°
2026-04-20 17:57 24.01872 -100.85856 32156 ft 417 kts 201°
2026-04-20 17:58 23.96271 -100.87509 32135 ft 417 kts 201°
2026-04-20 17:58 23.90673 -100.89172 32141 ft 417 kts 201°
2026-04-20 17:59 23.85071 -100.90837 32147 ft 417 kts 201°
2026-04-20 17:59 23.79474 -100.92493 32153 ft 418 kts 199°
2026-04-20 18:00 23.73604 -100.93023 32160 ft 429 kts 186°
2026-04-20 18:00 23.67633 -100.93007 32134 ft 429 kts 186°
2026-04-20 18:01 23.61653 -100.93009 32162 ft 429 kts 186°
2026-04-20 18:01 23.55682 -100.93014 32171 ft 429 kts 186°
2026-04-20 18:02 23.49710 -100.93006 32175 ft 429 kts 186°
2026-04-20 18:02 23.43742 -100.92998 32183 ft 428 kts 186°
2026-04-20 18:03 23.37781 -100.93000 32179 ft 428 kts 186°
2026-04-20 18:03 23.31828 -100.93008 32177 ft 428 kts 186°
2026-04-20 18:04 23.25875 -100.93008 32179 ft 428 kts 186°
2026-04-20 18:04 23.19917 -100.93001 32192 ft 428 kts 186°
2026-04-20 18:05 23.10989 -100.92994 32193 ft 428 kts 186°
2026-04-20 18:05 23.05036 -100.93002 32190 ft 427 kts 186°
2026-04-20 18:06 22.99092 -100.93008 32191 ft 427 kts 186°
2026-04-20 18:06 22.93152 -100.93014 32192 ft 427 kts 186°
2026-04-20 18:07 22.87254 -100.93012 32197 ft 427 kts 186°
2026-04-20 18:07 22.81321 -100.93016 32184 ft 426 kts 186°
2026-04-20 18:08 22.75387 -100.93022 32185 ft 426 kts 186°
2026-04-20 18:08 22.69425 -100.93027 32167 ft 426 kts 186°
2026-04-20 18:09 22.63534 -100.93033 32171 ft 426 kts 186°
2026-04-20 18:09 22.57615 -100.93032 32172 ft 426 kts 186°
2026-04-20 18:10 22.51691 -100.93034 32166 ft 425 kts 186°
2026-04-20 18:10 22.48728 -100.93036 32278 ft 425 kts 186°
2026-04-20 18:10 22.45769 -100.93039 32305 ft 425 kts 186°
2026-04-20 18:11 22.39848 -100.93038 32343 ft 426 kts 186°
2026-04-20 18:11 22.36888 -100.93035 32241 ft 422 kts 185°
2026-04-20 18:11 22.33989 -100.93030 32020 ft 412 kts 185°
2026-04-20 18:12 22.31150 -100.93025 31780 ft 405 kts 185°
2026-04-20 18:12 22.28340 -100.93051 31541 ft 401 kts 189°
2026-04-20 18:12 22.25600 -100.93428 31308 ft 394 kts 197°
2026-04-20 18:12 22.22979 -100.94231 31074 ft 389 kts 205°
2026-04-20 18:13 22.20478 -100.95327 30839 ft 388 kts 207°
2026-04-20 18:13 22.17980 -100.96437 30604 ft 388 kts 207°
2026-04-20 18:13 22.15483 -100.97541 30348 ft 388 kts 206°
2026-04-20 18:13 22.12984 -100.98642 30061 ft 387 kts 206°
2026-04-20 18:14 22.10494 -100.99739 29761 ft 386 kts 206°
2026-04-20 18:14 22.08011 -101.00829 29449 ft 385 kts 206°
2026-04-20 18:14 22.05536 -101.01917 29160 ft 383 kts 206°
2026-04-20 18:14 22.03076 -101.03000 28874 ft 382 kts 206°
2026-04-20 18:15 22.00619 -101.04085 28590 ft 380 kts 206°
2026-04-20 18:15 21.98193 -101.05155 28361 ft 373 kts 206°
2026-04-20 18:15 21.95801 -101.06210 27976 ft 370 kts 206°
2026-04-20 18:15 21.93460 -101.07244 27578 ft 367 kts 206°
2026-04-20 18:16 21.91106 -101.08283 27190 ft 364 kts 206°
2026-04-20 18:16 21.88765 -101.09315 26780 ft 363 kts 206°
2026-04-20 18:16 21.86436 -101.10339 26367 ft 361 kts 206°
2026-04-20 18:16 21.84113 -101.11362 25950 ft 360 kts 206°
2026-04-20 18:17 21.81799 -101.12382 25514 ft 359 kts 206°
2026-04-20 18:17 21.79497 -101.13398 25089 ft 358 kts 206°
2026-04-20 18:17 21.77190 -101.14412 24640 ft 358 kts 206°
2026-04-20 18:17 21.74883 -101.15424 24187 ft 358 kts 206°
2026-04-20 18:18 21.72574 -101.16439 23731 ft 359 kts 206°
2026-04-20 18:18 21.70264 -101.17456 23218 ft 359 kts 206°
2026-04-20 18:18 21.67950 -101.18473 22748 ft 358 kts 206°
2026-04-20 18:18 21.65653 -101.19483 22296 ft 357 kts 205°
2026-04-20 18:19 21.63376 -101.20529 21827 ft 354 kts 210°
2026-04-20 18:19 21.61343 -101.21988 21373 ft 349 kts 223°
2026-04-20 18:19 21.59619 -101.23803 20919 ft 347 kts 227°
2026-04-20 18:19 21.57922 -101.25640 20465 ft 346 kts 226°
2026-04-20 18:20 21.56225 -101.27467 20013 ft 345 kts 226°
2026-04-20 18:20 21.54528 -101.29287 19563 ft 345 kts 226°
2026-04-20 18:20 21.52829 -101.31104 19102 ft 344 kts 226°
2026-04-20 18:20 21.51128 -101.32927 18447 ft 350 kts 225°
2026-04-20 18:21 21.49389 -101.34792 17782 ft 353 kts 225°
2026-04-20 18:21 21.47656 -101.36649 17308 ft 351 kts 225°
2026-04-20 18:21 21.45933 -101.38494 16851 ft 349 kts 225°
2026-04-20 18:21 21.44225 -101.40324 16389 ft 345 kts 225°
2026-04-20 18:22 21.42544 -101.42130 15966 ft 336 kts 225°
2026-04-20 18:22 21.40925 -101.43869 15553 ft 323 kts 225°
2026-04-20 18:22 21.39363 -101.45543 15155 ft 312 kts 226°
2026-04-20 18:22 21.37873 -101.47143 14774 ft 302 kts 225°
2026-04-20 18:23 21.36410 -101.48714 14391 ft 294 kts 226°
2026-04-20 18:23 21.34985 -101.50243 14034 ft 286 kts 226°
2026-04-20 18:23 21.33595 -101.51733 13650 ft 279 kts 226°
2026-04-20 18:23 21.32229 -101.53197 13294 ft 275 kts 225°
2026-04-20 18:24 21.30870 -101.54653 12943 ft 277 kts 225°
2026-04-20 18:24 21.29504 -101.56114 12604 ft 278 kts 226°
2026-04-20 18:24 21.28133 -101.57578 12312 ft 278 kts 225°
2026-04-20 18:24 21.26764 -101.59039 12003 ft 277 kts 225°
2026-04-20 18:25 21.25400 -101.60499 11699 ft 277 kts 225°
2026-04-20 18:25 21.24038 -101.61957 11401 ft 276 kts 225°
2026-04-20 18:25 21.22696 -101.63394 11090 ft 268 kts 225°
2026-04-20 18:25 21.21401 -101.64778 10799 ft 258 kts 225°
2026-04-20 18:26 21.20005 -101.65951 10423 ft 254 kts 206°
2026-04-20 18:26 21.18359 -101.66466 10112 ft 240 kts 184°
2026-04-20 18:26 21.16735 -101.66305 9812 ft 234 kts 163°
2026-04-20 18:26 21.15320 -101.65563 9529 ft 219 kts 143°
2026-04-20 18:27 21.14254 -101.64473 9240 ft 205 kts 134°
2026-04-20 18:27 21.13295 -101.63412 8999 ft 190 kts 135°
2026-04-20 18:27 21.12402 -101.62432 8772 ft 179 kts 135°
2026-04-20 18:27 21.11564 -101.61513 8562 ft 169 kts 135°
2026-04-20 18:28 21.10758 -101.60631 8383 ft 165 kts 135°
2026-04-20 18:28 21.09969 -101.59767 8022 ft 162 kts 135°
2026-04-20 18:28 21.09184 -101.58908 8024 ft 161 kts 135°
2026-04-20 18:28 21.08390 -101.58038 7934 ft 164 kts 135°
2026-04-20 18:29 21.07585 -101.57155 7862 ft 167 kts 137°
2026-04-20 18:29 21.06769 -101.56258 7715 ft 168 kts 136°
2026-04-20 18:29 21.05956 -101.55364 7591 ft 169 kts 136°
2026-04-20 18:29 21.05139 -101.54471 7351 ft 167 kts 136°
2026-04-20 18:30 21.04335 -101.53591 7106 ft 165 kts 136°
2026-04-20 18:30 21.03540 -101.52718 6820 ft 162 kts 135°
2026-04-20 18:30 21.02766 -101.51866 6530 ft 157 kts 135°
2026-04-20 18:30 21.02012 -101.51029 6378 ft 156 kts 136°
2026-04-20 18:31 21.01257 -101.50204 6196 ft 154 kts 136°
2026-04-20 18:31 21.00516 -101.49393 6020 ft 152 kts 135°
2026-04-20 18:31 20.99812 -101.48627 5935 ft 127 kts 135°
2026-04-20 18:31 20.99315 -101.48084 5921 ft 77 kts 134°
2026-04-20 18:32 20.99058 -101.47803 5916 ft 32 kts 133°
2026-04-20 18:32 20.98908 -101.47638 5912 ft 25 kts 135°
2026-04-20 18:32 20.98828 -101.47553 5910 ft 5 kts 135°
2026-04-20 18:32 20.98794 -101.47557 5911 ft 6 kts 211°
2026-04-20 18:33 20.98758 -101.47593 5911 ft 8 kts 225°
2026-04-20 18:33 20.98711 -101.47644 5911 ft 11 kts 225°
2026-04-20 18:33 20.98659 -101.47700 5910 ft 7 kts 225°
2026-04-20 18:33 20.98652 -101.47727 5911 ft 2 kts 274°
2026-04-20 18:34 20.98645 -101.47743 5911 ft 3 kts 232°
2026-04-20 18:34 20.98632 -101.47759 5911 ft 3 kts 228°
2026-04-20 18:34 20.98613 -101.47779 5910 ft 4 kts 224°
2026-04-20 18:34 20.98604 -101.47788 5910 ft 0 kts 223°